Nassau, Bahamas

2:02 PM EST on December 17, 2017 (GMT -0500)
Nassau International

Weather History for MYNN - December, 2014

Change the Weather History Date:

Sunday, December 28, 2014

  Actual Average Record
Temperature  
Mean Temperature 76 °F -  
Max Temperature 84 °F 77 °F 84 °F (2007)
Min Temperature 69 °F 62 °F 55 °F (2005)
Cooling Degree Days 12    
Growing Degree Days 26 (Base 50)    
Moisture  
Dew Point 72 °F    
Average Humidity 85    
Maximum Humidity 100    
Minimum Humidity 70    
Precipitation  
Precipitation 0.00 in 0.06 in - ()
Sea Level Pressure  
Sea Level Pressure 30.15 in    
Wind  
Wind Speed 3 mph ()    
Max Wind Speed 10 mph    
Max Gust Speed -    
Visibility 6.7 miles    
Events      
Averages and records for this station are not official NWS values.
T = Trace of Precipitation, MM = Missing Value Source: Averaged Metar Reports

Daily Weather History Graph

Daily Weather History Graph

Search for Another Location

Airport or City:

Trip Planner

Search our weather history database for the weather conditions in past years. The results will help you decide how hot, cold, wet, or windy it might be!

Date:

Astronomy

Dec. 28, 2014 Rise Set
Actual Time 6:53 AM EST 5:29 PM EST
Civil Twilight 6:28 AM EST 5:54 PM EST
Nautical Twilight 6:00 AM EST 6:22 PM EST
Astronomical Twilight 5:32 AM EST 6:50 PM EST
Moon 11:57 AM EST (12/28) No Moon Set
Length of Visible Light 11h 25m
Length of Day
10h 35m
Waxing Crescent, 49% of the Moon is Illuminated
Dec 28
Waxing Crescent
Dec 28
First Quarter
Jan 4
Full
Jan 13
Last Quarter
Jan 20
New

Hourly Weather History & Observations

Time (EST) Temp. Heat Index Dew Point Humidity Pressure Visibility Wind Dir Wind Speed Gust Speed Precip Events Conditions
12:00 AM 73.4 °F - 68.0 °F 83% 30.17 in 6.2 mi Variable 1.2 mph - N/A   Unknown
1:00 AM 72 °F - 71 °F 97% 30.16 in 9 mi Calm Calm - -   Scattered Clouds
1:00 AM 71.6 °F - 71.6 °F 100% 30.16 in 6.2 mi Calm Calm - N/A   Partly Cloudy
5:00 AM 73.4 °F - 69.8 °F 88% 30.13 in 6.2 mi ESE 3.5 mph - N/A   Partly Cloudy
6:00 AM 71.6 °F - 68.0 °F 88% 30.14 in 6.2 mi Calm Calm - N/A   Partly Cloudy
7:00 AM 71 °F - 71 °F 100% 30.14 in 9 mi 1.2 mph - -   Scattered Clouds
7:00 AM 71.6 °F - 71.6 °F 100% 30.14 in 6.2 mi Variable 1.2 mph - N/A   Partly Cloudy
8:00 AM 73.4 °F - 69.8 °F 88% 30.16 in 6.2 mi Calm Calm - N/A   Scattered Clouds
9:00 AM 75.2 °F - 71.6 °F 89% 30.18 in 6.2 mi East 3.5 mph - N/A   Mostly Cloudy
10:00 AM 80 °F - 74 °F 76% 30.18 in 8 mi ENE 5.8 mph - -   Mostly Cloudy
10:00 AM 80.6 °F 85.4 °F 73.4 °F 79% 30.18 in 6.2 mi ENE 5.8 mph - N/A   Mostly Cloudy
11:00 AM 80.6 °F 84.6 °F 71.6 °F 74% 30.16 in 6.2 mi ESE 6.9 mph - N/A   Mostly Cloudy
12:00 PM 82.4 °F 87.2 °F 71.6 °F 70% 30.14 in 6.2 mi ESE 9.2 mph - N/A   Scattered Clouds
1:00 PM 82 °F - 74 °F 71% 30.11 in 8 mi East 8.1 mph - -   Mostly Cloudy
1:00 PM 82.4 °F 88.2 °F 73.4 °F 74% - 6.2 mi East 8.1 mph - N/A   Mostly Cloudy
2:00 PM 80.6 °F 83.9 °F 69.8 °F 70% 30.09 in 6.2 mi ESE 10.4 mph - N/A   Mostly Cloudy
3:00 PM 80.6 °F 84.6 °F 71.6 °F 74% 30.10 in 6.2 mi SE 9.2 mph - N/A   Scattered Clouds
4:00 PM 81 °F - 75 °F 77% 30.12 in 8 mi SE 9.2 mph - -   Partly Cloudy
4:00 PM 80.6 °F 86.2 °F 75.2 °F 84% 30.11 in 6.2 mi SE 9.2 mph - N/A   Scattered Clouds
5:00 PM 78.8 °F - 71.6 °F 78% 30.13 in 6.2 mi SE 6.9 mph - N/A   Partly Cloudy
6:00 PM 77.0 °F - 71.6 °F 83% 30.14 in 6.2 mi SE 4.6 mph - N/A   Scattered Clouds
7:00 PM 77 °F - 74 °F 90% 30.15 in 8 mi Calm Calm - -   Scattered Clouds
7:00 PM 77.0 °F - 75.2 °F 94% 30.14 in 6.2 mi Calm Calm - N/A   Partly Cloudy
8:00 PM 75.2 °F - 71.6 °F 89% 30.15 in 6.2 mi SE 4.6 mph - N/A   Partly Cloudy
9:00 PM 75.2 °F - 71.6 °F 89% 30.15 in 6.2 mi SE 4.6 mph - N/A   Partly Cloudy
10:00 PM 75 °F - 74 °F 98% 30.16 in 8 mi SE 4.6 mph - -   Scattered Clouds
10:00 PM 75.2 °F - 75.2 °F 100% 30.16 in 6.2 mi SE 4.6 mph - N/A   Partly Cloudy
11:00 PM 75.2 °F - 69.8 °F 83% 30.17 in 6.2 mi Calm Calm - N/A   Partly Cloudy